Lapse_Rate
5.8 5.8 5.7 5.8 5.8 5.7 5.7 5.8 5.8 5.9 5.9 6.5 6.4 6.2 6.0 5.8 5.8 5.8 5.8 5.8 5.6 5.5 5.5 5.4 5.3 5.2 4.9 4.7 4.4 4.1 3.9 3.6 3.4 3.3 3.0 2.8 2.6 2.4
5.7 5.6 5.7 5.8 5.8 5.9 6.0 6.0 5.9 6.0 5.8 6.0 5.8 5.8 5.7 5.8 5.7 5.7 5.7 5.6 5.6 5.5 5.2 5.0 4.7 4.3 4.0 3.8 3.6 3.4 3.2 3.0 2.8 2.7 2.7 2.5 2.6 2.4
5.6 5.7 5.8 5.9 6.0 6.3 6.2 6.1 6.1 6.1 6.0 5.9 5.6 5.5 5.5 5.3 5.3 5.4 5.2 5.1 4.9 4.5 4.3 4.1 3.9 3.5 3.4 3.3 3.2 3.1 3.0 3.0 3.2 3.5 3.9 4.5 4.5 4.3
5.7 5.9 6.0 6.1 6.0 6.1 6.1 6.1 6.0 5.9 5.9 5.7 5.6 5.6 5.5 5.3 5.1 4.9 4.7 4.4 4.3 4.0 3.8 3.5 3.4 3.2 3.2 3.0 3.0 3.4 4.0 4.6 5.0 5.0 5.1 5.1 5.2 5.4
5.7 5.8 6.1 6.0 6.0 6.0 6.1 6.0 5.8 5.8 5.7 5.6 5.6 5.4 5.3 4.9 4.7 4.4 4.3 4.3 4.0 3.6 3.4 3.2 3.0 3.1 3.5 4.2 4.8 5.0 5.1 5.2 5.0 5.1 5.3 5.3 5.4 5.5
5.8 6.1 6.1 5.9 5.9 6.0 5.9 5.7 5.7 5.7 5.6 5.5 5.5 5.2 4.8 4.4 4.2 4.1 4.2 3.7 3.7 3.3 3.1 3.2 4.0 4.8 5.0 5.1 5.1 5.1 5.1 4.9 4.8 5.1 5.3 5.4 5.3 5.2
5.7 5.9 6.0 6.0 5.9 5.7 5.7 5.8 5.8 5.7 5.5 5.2 4.9 4.6 4.4 4.1 3.9 3.8 3.7 3.6 3.5 3.8 4.4 5.3 5.1 5.2 5.3 5.3 5.4 5.4 4.9 4.7 4.9 5.1 5.2 5.2 5.2 5.1
5.6 5.6 5.8 5.7 5.6 5.7 5.7 5.6 5.5 5.3 4.9 4.6 4.4 4.2 3.8 3.7 3.5 3.5 3.4 3.6 4.8 5.5 5.5 5.8 5.7 5.8 5.8 5.8 5.9 5.5 5.1 5.0 4.8 4.8 5.1 5.2 4.9 5.0
5.6 5.7 5.7 5.7 5.8 5.8 5.8 5.5 5.1 4.6 4.4 4.1 3.9 3.5 3.6 3.2 3.2 3.7 4.7 5.2 5.4 5.5 5.6 6.0 5.5 6.0 5.9 6.0 5.9 5.6 5.4 5.3 5.0 5.1 5.6 5.4 5.2 5.2
5.5 5.7 5.9 5.8 5.9 5.6 5.4 5.1 4.8 4.4 4.0 3.9 3.6 3.4 3.3 3.5 4.5 5.1 5.0 5.1 5.5 5.5 5.4 5.3 5.4 5.8 5.8 6.2 6.0 6.1 6.1 5.7 5.1 5.2 5.7 5.8 5.5 5.2
5.8 5.9 5.8 5.7 5.6 5.2 5.0 4.8 4.4 4.0 3.7 3.4 3.2 3.2 3.9 4.7 4.6 4.7 4.7 5.1 5.6 5.7 5.8 5.2 6.0 6.3 6.4 6.7 6.6 6.6 6.3 5.9 5.7 5.5 5.8 5.7 5.7 5.3
5.7 5.4 5.3 5.3 5.3 5.0 4.6 4.3 4.1 3.7 3.5 3.3 3.8 4.6 4.7 4.7 4.6 4.6 4.7 5.0 5.3 5.9 6.1 5.9 6.6 6.4 6.9 7.2 7.3 7.2 6.7 6.2 5.9 5.7 5.8 5.8 5.9 5.5
5.3 5.5 5.5 5.3 5.0 4.5 4.1 3.9 3.6 3.6 3.8 4.8 5.2 5.0 5.1 5.0 5.0 4.8 4.8 5.2 5.8 6.4 6.3 6.1 6.6 6.4 6.2 6.5 6.8 6.6 6.5 6.3 6.1 6.2 5.9 5.6 5.7 5.5
5.8 5.7 5.3 4.8 4.3 4.0 3.7 3.5 3.5 4.0 4.9 5.1 5.2 5.1 5.2 5.2 5.2 5.2 5.5 5.8 6.2 6.3 6.6 6.3 6.2 6.1 6.1 6.2 6.2 6.4 6.3 6.1 6.1 6.3 6.0 5.6 5.4 5.5
5.4 5.0 4.5 4.3 3.9 3.5 3.4 3.5 4.0 5.0 5.1 5.3 5.3 5.3 5.4 5.5 5.5 5.6 5.9 6.1 6.6 6.6 6.5 6.1 5.8 5.7 5.7 5.7 5.7 6.3 6.1 6.4 6.0 6.0 5.8 5.8 5.8 5.5
4.9 4.4 4.2 4.0 3.7 3.6 3.7 4.3 4.9 5.0 5.3 5.4 5.5 5.6 5.5 5.6 5.7 5.6 5.8 6.0 6.4 6.6 6.3 5.8 5.6 5.5 5.6 5.6 5.6 6.0 5.8 5.8 5.6 5.1 5.4 5.7 5.5 5.5
4.6 4.4 4.0 3.6 3.5 3.7 4.4 4.7 4.8 5.0 5.2 5.4 5.6 5.6 5.7 5.8 5.8 5.6 5.6 5.7 5.7 5.7 6.1 5.9 5.4 5.3 5.2 4.6 5.1 5.2 5.3 5.3 5.3 5.3 5.1 5.7 5.8 5.5
4.5 4.2 3.7 3.8 4.1 4.8 4.9 4.9 5.0 5.3 5.5 5.6 5.6 5.7 5.8 5.7 5.7 5.6 5.4 5.3 5.3 5.4 5.4 5.4 5.5 5.7 5.4 5.1 4.9 5.4 5.6 5.5 5.6 5.4 5.1 5.4 6.5 6.0
4.2 3.8 4.1 4.7 5.0 5.1 5.2 5.3 5.4 5.6 5.7 5.8 5.8 5.8 5.8 5.6 5.4 5.4 5.3 5.2 5.4 5.2 5.0 5.0 5.2 5.2 5.5 5.8 5.4 4.5 4.6 4.7 5.1 5.5 5.2 5.4 6.0 6.5
3.9 4.4 5.0 5.1 5.2 5.3 5.4 5.5 5.6 5.7 5.7 5.7 5.8 5.8 5.7 5.4 5.4 5.4 5.1 5.0 5.2 5.3 5.2 4.7 4.7 4.8 4.9 5.1 5.8 5.7 4.5 4.6 4.7 5.1 5.4 5.6 5.8 6.1
4.6 5.2 5.2 5.4 5.5 5.5 5.6 5.7 5.9 5.9 5.9 5.9 5.7 5.7 5.7 5.6 5.4 5.2 5.2 4.8 4.7 4.7 5.1 5.1 4.9 4.9 5.0 5.3 5.5 5.5 5.2 4.6 4.6 4.8 5.1 5.5 5.9 6.3
5.3 5.3 5.4 5.6 5.7 5.8 5.8 5.9 5.9 5.9 5.7 5.7 5.7 5.7 5.7 5.5 5.4 5.4 5.3 5.3 5.1 4.8 5.2 5.2 5.0 4.9 4.9 4.9 5.1 5.2 5.2 5.3 5.0 4.7 4.5 4.5 4.9 5.7
5.4 5.4 5.5 5.8 5.9 6.0 6.0 6.0 6.0 6.0 5.9 5.7 5.7 5.7 5.8 5.8 5.7 5.7 5.7 5.6 5.5 5.3 5.0 5.1 5.2 5.0 4.8 4.7 4.5 4.6 4.8 4.8 4.7 5.0 4.8 4.4 4.5 4.6
Wind_Speed
5 5 2 2 2 3 2 3 3 2 3 2 2 3 11 13 14 18 16 19 28 27 26 26 27 27 28 31 29 28 29 29 30 31 33 33 34 35
3 5 3 2 3 2 2 2 3 4 3 3 3 3 8 10 15 18 18 23 23 23 25 27 27 27 27 28 30 31 30 30 31 32 33 34 35 35
4 5 4 4 3 2 2 2 3 3 4 3 3 3 3 6 11 16 17 17 17 24 25 26 27 26 29 29 29 30 31 30 31 33 32 33 33 33
4 4 3 2 3 4 3 4 4 4 3 7 3 3 5 6 7 9 13 18 18 22 26 27 28 28 28 28 28 28 28 30 31 31 31 32 33 35
3 2 1 3 4 3 3 4 4 4 4 4 6 3 4 4 7 6 7 11 16 22 26 26 28 28 26 27 28 29 29 30 31 31 31 31 32 32
3 1 2 4 5 4 4 5 5 4 4 4 4 3 3 5 5 7 9 7 9 15 21 23 27 25 27 30 29 29 29 29 29 29 30 31 31 33
2 2 2 4 8 7 4 4 4 3 3 3 4 2 7 8 9 7 8 10 10 9 9 5 7 9 18 24 25 29 28 28 30 31 32 32 32 31
2 3 4 7 7 11 11 14 10 3 2 2 2 7 9 8 8 8 9 9 9 7 3 11 10 9 10 16 25 29 31 32 32 31 30 31 30 31
2 3 3 3 6 5 9 12 12 14 14 11 8 8 10 10 10 10 9 8 11 11 11 12 9 11 9 17 28 31 33 32 30 29 29 28 28 28
1 2 2 5 5 7 6 5 6 6 6 6 7 10 10 10 9 9 11 10 10 10 9 11 9 11 10 13 29 32 32 29 27 27 28 29 30 30
3 4 5 5 10 15 6 4 6 5 11 19 20 20 21 24 21 8 7 8 11 11 9 9 6 8 10 12 13 25 26 25 27 31 31 29 28 28
4 4 8 9 14 15 8 5 5 6 8 6 5 10 14 14 19 8 5 8 9 8 1 2 7 7 6 4 6 5 9 24 29 29 29 29 28 12
3 3 3 14 15 16 17 4 6 9 5 5 7 7 8 7 6 6 7 7 9 10 13 10 6 9 7 8 6 8 10 13 11 14 23 26 26 22
4 3 6 15 16 16 11 15 17 13 5 6 6 7 7 8 7 7 12 13 15 15 18 11 7 9 11 12 13 10 10 10 10 11 10 17 24 25
3 9 14 13 13 9 14 15 12 4 5 6 7 8 7 7 10 10 10 15 14 17 19 16 10 12 10 12 13 13 14 10 11 11 10 9 9 8
10 4 6 8 9 10 8 7 4 5 5 6 7 9 9 8 9 8 9 9 10 12 12 16 11 11 11 11 11 14 14 9 10 11 10 10 10 10
2 1 2 3 4 4 5 5 5 5 5 6 7 8 9 9 9 8 8 9 9 11 13 11 11 11 11 15 13 14 13 12 11 11 10 12 12 11
3 2 3 3 4 5 6 7 6 9 6 7 8 7 8 9 10 10 8 9 10 11 12 12 11 11 11 11 20 14 13 12 13 12 12 11 13 11
2 2 2 3 5 5 5 5 7 7 7 7 7 8 8 8 12 10 10 9 10 10 11 11 10 10 12 14 11 16 11 11 12 12 11 11 13 14
2 3 3 4 5 5 6 6 7 7 7 7 7 8 8 8 9 10 10 11 11 11 12 11 9 9 10 13 16 16 17 10 10 12 12 11 13 27
4 3 3 4 5 5 6 6 6 7 8 7 7 8 8 8 9 9 10 19 19 11 12 12 12 26 12 12 10 13 13 19 16 13 12 11 12 12
4 5 5 5 5 6 6 6 7 7 7 7 8 8 8 8 9 11 10 11 11 11 12 11 12 11 10 10 13 17 13 13 17 22 21 19 10 7
4 5 6 5 5 5 6 6 7 8 7 8 8 9 9 9 10 10 11 11 11 10 11 12 12 10 11 11 15 13 19 17 12 12 14 21 21 23
Wind_Direction
144 142 139 158 139 142 147 157 166 276 276 287 275 277 329 319 314 315 310 310 305 304 302 301 299 298 299 294 290 293 296 287 287 285 283 281 278 276
146 147 145 158 158 153 179 182 183 198 243 217 255 279 301 304 308 314 298 306 303 301 300 301 299 298 294 298 297 291 293 291 288 285 284 281 282 280
131 160 184 176 186 204 194 195 220 190 241 275 247 269 279 283 294 295 296 295 288 296 300 300 298 297 299 295 295 293 289 290 288 283 285 283 282 278
160 163 197 193 214 214 212 232 232 233 222 272 243 254 246 267 272 283 288 289 290 291 296 298 300 297 297 295 291 291 293 290 290 290 288 285 282 279
128 168 233 211 242 244 234 244 240 247 246 264 287 246 260 278 289 274 270 278 278 287 295 297 297 298 295 294 298 296 296 293 291 289 285 281 280 279
88 90 250 229 232 242 238 241 246 250 259 267 274 270 262 286 272 289 296 287 293 290 290 291 290 294 296 297 294 293 292 290 289 284 279 279 278 276
38 5 295 248 248 260 250 244 240 250 262 261 278 279 296 301 301 298 288 298 300 289 280 267 277 275 282 290 285 286 288 284 283 283 282 279 277 275
346 337 320 299 293 298 298 301 290 268 221 212 233 288 294 296 294 291 295 303 305 270 278 296 291 283 280 278 278 283 283 287 287 284 281 280 278 275
3 343 340 340 338 308 301 301 302 302 300 300 296 285 288 285 289 293 285 285 292 293 299 293 290 281 279 277 281 283 284 287 287 285 283 281 278 275
341 337 319 302 304 306 282 281 275 273 275 274 262 270 261 268 269 286 294 293 289 289 289 285 287 280 281 275 278 284 285 285 282 281 281 285 286 279
315 330 299 315 312 313 310 273 282 275 277 288 295 299 300 300 301 304 294 301 295 292 285 280 278 290 287 279 273 273 278 279 282 286 285 283 279 278
325 317 327 323 317 309 310 289 285 270 277 286 292 294 292 285 297 291 279 280 289 302 265 274 303 307 300 231 263 259 269 276 280 282 281 281 280 276
316 316 307 314 308 320 316 320 280 297 341 307 302 302 299 290 286 280 273 260 278 270 278 293 293 287 272 291 272 277 277 278 274 274 276 278 278 274
307 286 280 298 324 323 324 312 313 330 324 311 304 300 299 297 293 286 281 273 261 263 280 274 269 271 277 283 289 285 278 278 276 273 267 266 274 271
276 288 323 327 325 327 314 321 330 322 309 304 300 296 292 290 292 289 282 280 272 270 273 270 262 270 268 273 279 283 286 286 279 272 266 261 256 253
297 309 320 333 330 322 324 314 301 301 297 299 297 298 300 300 296 295 294 298 293 293 280 271 263 260 268 266 270 278 279 277 280 277 272 270 264 257
37 4 329 323 323 318 316 311 308 305 303 296 294 300 301 300 296 299 292 293 288 297 301 298 282 262 257 263 275 271 273 276 271 270 271 271 267 260
25 326 304 305 315 314 314 312 305 307 295 297 297 291 293 297 300 300 299 295 291 293 292 293 297 298 289 263 237 262 275 270 275 275 266 265 272 265
313 293 282 297 302 301 302 297 298 296 296 293 293 292 292 292 306 301 298 294 292 290 288 290 290 291 299 297 294 268 274 274 283 281 273 267 270 277
304 300 291 299 300 302 301 295 297 299 299 295 292 296 296 293 298 296 296 296 294 294 297 299 294 291 288 295 303 302 277 273 277 278 280 276 269 270
312 300 288 289 291 290 288 288 283 290 297 303 293 291 292 292 291 289 289 297 300 299 298 301 300 301 295 291 292 297 302 293 278 282 285 282 282 282
307 302 300 290 287 285 287 287 292 295 296 294 291 290 291 287 287 289 290 295 297 294 292 292 304 308 302 299 298 301 304 308 301 294 283 275 278 272
293 297 298 291 285 280 283 288 290 290 289 288 289 293 291 292 291 288 290 290 290 295 308 311 314 311 304 301 302 304 303 307 306 306 305 300 288 280